Lid_Strength_Index
1 1 1 1 1 2 8 17 19 10 10 17 27 26 24 12 13 12 14 17 18 17 18 24 24 20 20 17 16 21 15 24 26 22 15 15 19 18 17 25 24 20 20 20
1 1 1 1 2 3 12 21 21 11 11 22 25 23 22 17 15 14 14 17 15 19 18 23 23 25 18 18 20 22 18 25 26 27 20 17 20 16 14 15 17 21 20 19
1 1 1 1 1 3 12 18 20 17 18 21 21 24 21 21 14 15 13 14 14 19 22 19 22 19 17 13 16 11 13 17 22 24 21 17 20 17 15 15 20 18 18 15
1 1 1 1 1 3 11 18 21 19 22 20 23 19 24 20 20 15 15 20 18 21 24 21 22 18 18 14 12 15 19 23 25 20 17 17 18 17 16 18 17 19 16 16
1 1 1 1 1 3 13 17 18 20 24 16 19 17 20 19 17 19 19 19 15 18 22 20 20 18 17 17 15 18 22 23 23 21 17 18 19 17 15 16 16 15 14 14
1 1 1 1 2 5 16 11 10 16 18 25 22 21 17 15 14 15 14 15 15 16 16 14 15 14 13 14 15 15 16 18 19 23 24 26 25 19 16 14 14 16 17 13
2 1 1 1 2 4 10 13 10 16 21 22 19 15 15 14 14 15 13 13 17 14 12 12 13 13 13 13 13 12 15 16 17 21 24 27 20 15 13 13 14 12 10 10
2 2 1 1 1 2 6 8 9 13 16 15 15 15 15 14 13 14 13 12 12 12 13 22 27 26 24 23 16 15 13 15 20 21 23 19 17 14 14 14 15 12 12 10
2 2 1 1 1 1 5 6 6 10 13 17 12 15 15 18 17 18 14 12 11 12 16 26 32 31 30 28 24 16 14 13 18 26 24 25 18 12 10 10 17 10 9 9
2 2 2 2 1 1 4 6 5 8 13 13 14 18 16 14 15 15 16 14 14 12 27 25 30 29 23 27 32 28 30 30 21 20 20 18 13 11 9 17 17 9 8 9
2 2 2 2 2 1 4 6 5 7 11 10 10 11 14 15 13 15 14 13 19 21 23 26 27 29 23 25 21 22 25 23 26 28 27 24 12 10 13 10 8 9 8 8
2 2 2 2 2 2 2 7 5 5 8 10 9 8 7 8 9 10 11 13 17 14 21 24 19 24 23 20 21 16 21 17 18 16 17 12 9 9 8 7 9 8 8 7
2 2 2 2 2 2 2 6 5 7 9 10 9 10 7 7 7 6 11 11 10 11 11 13 16 19 15 19 18 17 15 12 15 15 13 10 10 8 8 8 8 7 6 7
2 2 2 2 2 2 2 7 6 7 9 13 12 10 10 7 7 7 7 8 9 9 10 13 15 15 12 15 14 15 12 12 14 13 12 9 9 8 8 7 6 6 6 6
2 2 2 2 2 2 4 7 5 5 8 15 14 11 9 9 8 9 8 9 9 10 12 14 16 12 11 12 12 15 12 13 14 15 10 10 10 7 7 7 8 7 6 6
2 2 2 2 2 2 7 10 8 5 5 10 15 15 16 10 9 9 9 9 10 10 12 14 15 12 10 15 19 12 12 12 12 12 11 11 8 7 6 7 7 6 6 6
2 2 2 2 2 4 8 12 9 5 6 10 14 17 17 15 12 15 15 11 11 10 11 14 13 13 10 14 16 11 13 13 13 11 12 13 11 12 11 10 7 6 7 7
3 2 2 2 3 4 7 5 3 5 9 10 15 17 18 14 20 16 20 19 19 14 15 21 19 16 18 21 14 13 13 14 14 13 13 13 13 14 15 14 10 8 9 8
3 3 3 5 8 9 9 4 3 4 8 13 15 16 17 14 19 19 18 17 19 22 19 23 17 26 20 14 14 15 15 16 16 16 17 16 17 17 18 19 18 16 11 9
3 6 9 11 10 7 7 10 12 12 10 11 14 14 15 14 18 19 17 19 18 20 20 20 23 20 13 14 15 15 16 16 18 23 19 20 21 20 21 22 21 20 16 10
9 9 11 14 7 11 12 14 17 19 20 19 18 13 13 14 16 16 15 17 18 20 20 20 28 25 15 15 17 16 17 18 19 19 19 20 21 22 23 24 25 23 23 19
7 8 11 12 14 15 17 19 22 22 21 22 20 18 15 16 15 15 19 19 20 22 26 23 27 18 17 18 19 19 19 21 23 24 23 23 24 24 26 26 26 27 27 25
7 9 14 16 17 20 22 24 25 26 22 21 20 19 17 18 16 16 18 20 21 21 21 23 21 20 19 21 26 27 27 30 30 28 27 27 28 27 27 28 26 29 28 27
12 14 17 18 19 20 21 22 19 17 18 17 16 18 17 17 17 16 20 18 19 21 26 24 21 19 19 26 31 31 30 30 29 29 30 27 30 29 27 27 28 31 30 30
12 14 19 19 19 24 22 17 18 18 14 15 17 17 16 19 17 19 18 22 22 21 23 20 20 18 22 28 33 29 31 31 32 33 32 28 30 30 28 28 28 28 31 32
12 14 17 22 21 20 25 22 16 15 14 15 15 18 19 20 19 22 21 21 22 21 21 19 20 23 25 30 32 32 34 35 34 34 32 28 29 29 29 31 30 29 29 29
14 15 12 12 13 14 13 17 15 13 15 17 18 21 20 19 21 22 19 22 16 20 21 20 20 23 26 33 36 37 36 36 35 34 33 29 28 31 31 28 32 33 31 32